Flag for Central African Republic Weather past 2 weeks in Bambari, Central African Republic

Now
73 °F

Clear.


Feels Like: 68 °F
Forecast: 69 / 83 °F
Wind: No wind

Location: Bangui Airport

Current Time: Aug 30, 2014 at 1:39:26 AM

Latest Report: Aug 30, 2014 at 12:00 AM


Visibility: 10 mi

Pressure: 29.86 "Hg

Humidity: 100%

Dew point: 73 °F

Location of BambariLocation

Historic Weather in Bambari — Graph

°F

Bambari temperature yesterday

Maximum temperature yesterday: 88 °F (at 2:00 PM)
Minimum temperature yesterday: 73 °F (at 2:00 AM)
Average temperature yesterday: 79 °F

Past Weeks' High & Low Weather Summary

 TemperatureHumidityPressure
High93 °F (Aug 16, 2:00 PM)100% (Aug 15, 12:00 AM)30.04 "Hg (Aug 15, 12:00 AM)
Low68 °F (Aug 15, 2:00 AM)49% (Aug 16, 2:00 PM)29.74 "Hg (Aug 17, 4:00 PM)
Average77 °F85%29.91 "Hg
* Reported Midnight between Aug 14 and Aug 15 — Midnight between Aug 29 and Aug 30, Bambari, Weather by CustomWeather, © 2014

Note: Actual official high and low records may vary slightly from our data, if they occured in-between our weather recording intervals... More about our weather records

Advertising

Bambari weather history for previous 24 hours

 ConditionsComfort  
Time TempWeatherWind HumidityBarometerVisibility
12:00 AM
Aug 30
73 °FClear.No wind100%29.86 "Hg10 mi
11:00 PM
Aug 29
75 °FClear.No wind94%29.89 "Hg10 mi
10:00 PM75 °FClear.2 mph94%29.89 "Hg10 mi
9:00 PM77 °FClear.No wind94%29.86 "Hg10 mi
8:00 PM79 °FClear.No wind89%29.83 "Hg10 mi
7:00 PM79 °FClear.2 mph84%29.80 "Hg10 mi
6:00 PM81 °FPassing clouds.2 mph79%29.80 "HgN/A
5:00 PM84 °FBroken clouds.2 mph66%29.80 "HgN/A
4:00 PM86 °FBroken clouds.7 mph62%29.80 "HgN/A
3:00 PM88 °FBroken clouds.5 mph59%29.83 "HgN/A
2:00 PM88 °FPartly sunny.2 mph59%29.86 "HgN/A
1:00 PM86 °FPartly sunny.7 mph66%29.89 "HgN/A
12:00 PM86 °FPartly sunny.6 mph62%29.89 "HgN/A
11:00 AM84 °FPartly sunny.7 mph66%29.92 "HgN/A
10:00 AM82 °FPartly sunny.7 mph74%29.92 "HgN/A
9:00 AM79 °FPartly sunny.7 mph84%29.92 "HgN/A
8:00 AM77 °FScattered clouds.6 mph89%29.92 "HgN/A
7:00 AM73 °FPartly sunny.5 mph100%29.92 "HgN/A
6:00 AM73 °FScattered clouds.No wind100%29.89 "HgN/A
5:00 AM73 °FPassing clouds.No wind100%29.89 "HgN/A
4:00 AM73 °FPassing clouds.No wind100%29.86 "HgN/A
3:00 AM75 °FPassing clouds.2 mph94%29.86 "HgN/A
2:00 AM73 °FPassing clouds.3 mph94%29.86 "HgN/A
1:00 AM75 °FThunderstorms. Passing clouds.2 mph94%29.86 "HgN/A
Weather by CustomWeather, © 2014

See weather overviewHow to use our weather pages